sat.trackr.live / text

‹ back to catalog

ONEWEB-0090

NORAD 45427 · 2020-020D

PAYLOAD ACTIVE UNKNOWN

§ Identity

Operator
Country
UK
Launch date
2020-03-21
Launch site
TYMSC
Launch vehicle
Mass (kg)
RCS (m²)

Purposes: comms

External: N2YO · Heavens-Above · Gunter

§ Orbital elements

Epoch: 2026-09-20T01:11:47.471136Z

Period
109.80 min
Inclination
87.8979°
Eccentricity
0.0001735
Mean motion
13.11415850 rev/d
Perigee alt
1,216.4 km
Apogee alt
1,219.0 km
Semi-major
7,595.8 km
B*
8.5833e-4
RAAN
2.2221°
Arg perigee
100.4742°
Mean anomaly
259.6581°
Rev number
31,510

§ Raw data

ONEWEB-00901 45427U 20020D   26263.04985499  .00000317  00000+0  85833-3 0  99932 45427  87.8979   2.2221 0001735 100.4742 259.6581 13.11415850315100

JSON: /api/v1/satellites/45427 · /tle

For live sub-satellite position, see the globe view (requires WebGL).

§ Visibility from observer

Set your observer location to see the next 7 days of passes ≥ 10°. The values pass through the URL so the page stays shareable.

No JS? Fill the form by hand. The geolocation button needs JavaScript.